owner,sensor,date,latitude,longitude,vertical_datum,wind_speed,wind_to_direction,wind_speed_of_gust,qcFlag 
TABS,ioos:station:wmo:42047:1,2017-01-01T00:00:00Z,27.8966,-93.5973,4.0,8.049055845,209.1446275,9.77,'11111222,11111222,11111222' 
TABS,ioos:station:wmo:42047:1,2017-01-01T00:30:00Z,27.8966,-93.5973,4.0,7.377872322,210.9106211,8.63,'11111222,11111222,11111222' 
TABS,ioos:station:wmo:42047:1,2017-01-01T01:00:00Z,27.8966,-93.5973,4.0,7.247654793,208.1563361,8.89,'11111222,11111222,11111222' 
TABS,ioos:station:wmo:42047:1,2017-01-01T01:30:00Z,27.8966,-93.5973,4.0,5.916662911,206.3919706,7.09,'11111222,11111222,11111222' 
TABS,ioos:station:wmo:42047:1,2017-01-01T02:00:00Z,27.8966,-93.5973,4.0,5.714017851,200.2745435,6.92,'11111222,11111222,11111222' 
TABS,ioos:station:wmo:42047:1,2017-01-01T02:30:00Z,27.8966,-93.5973,4.0,5.520009058,199.9123269,7.33,'11111222,11111222,11111222' 
TABS,ioos:station:wmo:42047:1,2017-01-01T03:00:00Z,27.8966,-93.5973,4.0,5.500409076,201.4340462,6.73,'11111222,11111222,11111222' 
TABS,ioos:station:wmo:42047:1,2017-01-01T03:30:00Z,27.8966,-93.5973,4.0,5.511778297,201.1645479,6.72,'11111222,11111222,11111222' 
TABS,ioos:station:wmo:42047:1,2017-01-01T04:00:00Z,27.8966,-93.5973,4.0,5.119628893,201.9054783,6.33,'11111222,11111222,11111222' 
TABS,ioos:station:wmo:42047:1,2017-01-01T04:30:00Z,27.8966,-93.5973,4.0,5.161123909,205.9694257,6.21,'11111222,11111222,11111222' 
TABS,ioos:station:wmo:42047:1,2017-01-01T05:00:00Z,27.8966,-93.5973,4.0,4.866210024,207.4077218,6.26,'11111222,11111222,11111222' 
TABS,ioos:station:wmo:42047:1,2017-01-01T05:30:00Z,27.8966,-93.5973,4.0,5.445677185,204.6356734,6.68,'11111222,11111222,11111222' 
TABS,ioos:station:wmo:42047:1,2017-01-01T06:00:00Z,27.8966,-93.5973,4.0,4.349540206,220.24421,5.34,'11111222,11111222,11111222' 
TABS,ioos:station:wmo:42047:1,2017-01-01T06:30:00Z,27.8966,-93.5973,4.0,4.61853873,208.7294121,6.53,'11111222,11111222,11111222' 
TABS,ioos:station:wmo:42047:1,2017-01-01T07:00:00Z,27.8966,-93.5973,4.0,5.97445395,197.4342882,7.71,'11111222,11111222,11111222' 
TABS,ioos:station:wmo:42047:1,2017-01-01T07:30:00Z,27.8966,-93.5973,4.0,5.990400654,196.287158,7.37,'11111222,11111222,11111222' 
TABS,ioos:station:wmo:42047:1,2017-01-01T08:00:00Z,27.8966,-93.5973,4.0,5.460567736,195.1816724,6.95,'11111222,11111222,11111222' 
TABS,ioos:station:wmo:42047:1,2017-01-01T08:30:00Z,27.8966,-93.5973,4.0,6.588846637,199.7826769,7.63,'11111222,11111222,11111222' 
TABS,ioos:station:wmo:42047:1,2017-01-01T09:00:00Z,27.8966,-93.5973,4.0,6.2488799,203.2830227,7.8,'11111222,11111222,11111222' 
TABS,ioos:station:wmo:42047:1,2017-01-01T09:30:00Z,27.8966,-93.5973,4.0,6.297340709,205.7920808,7.41,'11111222,11111222,11111222' 
TABS,ioos:station:wmo:42047:1,2017-01-01T10:00:00Z,27.8966,-93.5973,4.0,5.737630173,197.2350521,6.78,'11111222,11111222,11111222' 
TABS,ioos:station:wmo:42047:1,2017-01-01T10:30:00Z,27.8966,-93.5973,4.0,6.794129819,197.208302,8.45,'11111222,11111222,11111222' 
TABS,ioos:station:wmo:42047:1,2017-01-01T11:00:00Z,27.8966,-93.5973,4.0,7.066972478,200.7175232,8.22,'11111222,11111222,11111222' 
TABS,ioos:station:wmo:42047:1,2017-01-01T11:30:00Z,27.8966,-93.5973,4.0,6.730735472,195.688325,8.34,'11111222,11111222,11111222' 
TABS,ioos:station:wmo:42047:1,2017-01-01T12:00:00Z,27.8966,-93.5973,4.0,6.217274322,200.3297012,7.18,'11111222,11111222,11111222' 
TABS,ioos:station:wmo:42047:1,2017-01-01T12:30:00Z,27.8966,-93.5973,4.0,5.423329236,198.6021584,6.41,'11111222,11111222,11111222' 
TABS,ioos:station:wmo:42047:1,2017-01-01T13:00:00Z,27.8966,-93.5973,4.0,6.170324141,203.6986535,7.36,'11111222,11111222,11111222' 
TABS,ioos:station:wmo:42047:1,2017-01-01T13:30:00Z,27.8966,-93.5973,4.0,5.300877286,202.9858583,6.28,'11111222,11111222,11111222' 
TABS,ioos:station:wmo:42047:1,2017-01-01T14:00:00Z,27.8966,-93.5973,4.0,5.265216045,198.2630577,5.99,'11111222,11111222,11111222' 
TABS,ioos:station:wmo:42047:1,2017-01-01T14:30:00Z,27.8966,-93.5973,4.0,5.720952718,190.7797983,6.78,'11111222,11111222,11111222' 
TABS,ioos:station:wmo:42047:1,2017-01-01T15:00:00Z,27.8966,-93.5973,4.0,6.058919046,192.293079,7.21,'11111222,11111222,11111222' 
TABS,ioos:station:wmo:42047:1,2017-01-01T15:30:00Z,27.8966,-93.5973,4.0,6.981009956,190.231624,8.15,'11111222,11111222,11111222' 
TABS,ioos:station:wmo:42047:1,2017-01-01T16:00:00Z,27.8966,-93.5973,4.0,6.97401606,189.9082244,8.99,'11111222,11111222,11111222' 
TABS,ioos:station:wmo:42047:1,2017-01-01T16:30:00Z,27.8966,-93.5973,4.0,3.756833773,251.8544638,5.75,'11111222,11111222,11111222' 
TABS,ioos:station:wmo:42047:1,2017-01-01T17:00:00Z,27.8966,-93.5973,4.0,5.620080071,186.8470167,6.84,'11111222,11111222,11111222' 
TABS,ioos:station:wmo:42047:1,2017-01-01T17:30:00Z,27.8966,-93.5973,4.0,6.820689115,196.7879217,7.74,'11111222,11111222,11111222' 
TABS,ioos:station:wmo:42047:1,2017-01-01T18:00:00Z,27.8966,-93.5973,4.0,8.900926918,205.557591,10.9,'11111222,11111222,11111222' 
TABS,ioos:station:wmo:42047:1,2017-01-01T18:30:00Z,27.8966,-93.5973,4.0,5.063200569,239.8902528,6.08,'11111222,11111222,11111222' 
TABS,ioos:station:wmo:42047:1,2017-01-01T19:00:00Z,27.8966,-93.5973,4.0,4.463742824,212.3728808,5.21,'11111222,11111222,11111222' 
TABS,ioos:station:wmo:42047:1,2017-01-01T19:30:00Z,27.8966,-93.5973,4.0,6.223768955,192.3392689,7.51,'11111222,11111222,11111222' 
TABS,ioos:station:wmo:42047:1,2017-01-01T20:00:00Z,27.8966,-93.5973,4.0,7.169386306,194.210866,8.47,'11111222,11111222,11111222' 
TABS,ioos:station:wmo:42047:1,2017-01-01T20:30:00Z,27.8966,-93.5973,4.0,5.956853196,193.5931819,7.24,'11111222,11111222,11111222' 
TABS,ioos:station:wmo:42047:1,2017-01-01T21:00:00Z,27.8966,-93.5973,4.0,6.050999917,178.9585862,8.44,'11111222,11111222,11111222' 
TABS,ioos:station:wmo:42047:1,2017-01-01T21:30:00Z,27.8966,-93.5973,4.0,8.314066394,181.7922694,9.83,'11111222,11111222,11111222' 
TABS,ioos:station:wmo:42047:1,2017-01-01T22:00:00Z,27.8966,-93.5973,4.0,7.201117969,176.8159743,8.23,'11111222,11111222,11111222' 
TABS,ioos:station:wmo:42047:1,2017-01-01T22:30:00Z,27.8966,-93.5973,4.0,7.177701582,174.9647873,8.85,'11111222,11111222,11111222' 
TABS,ioos:station:wmo:42047:1,2017-01-01T23:00:00Z,27.8966,-93.5973,4.0,7.6423622,181.4248085,9.05,'11111222,11111222,11111222' 
TABS,ioos:station:wmo:42047:1,2017-01-01T23:30:00Z,27.8966,-93.5973,4.0,7.01824052,182.7769958,8.64,'11111222,11111222,11111222' 
TABS,ioos:station:wmo:42047:1,2017-01-02T00:00:00Z,27.8966,-93.5973,4.0,7.545283295,176.3528333,8.99,'11111222,11111222,11111222' 
TABS,ioos:station:wmo:42047:1,2017-01-02T00:30:00Z,27.8966,-93.5973,4.0,5.862226539,190.7159039,7.09,'11111222,11111222,11111222' 
TABS,ioos:station:wmo:42047:1,2017-01-02T01:00:00Z,27.8966,-93.5973,4.0,4.901469168,206.6697535,6.3,'11111222,11111222,11111222' 
TABS,ioos:station:wmo:42047:1,2017-01-02T01:30:00Z,27.8966,-93.5973,4.0,4.703456176,186.8381299,5.63,'11111222,11111222,11111222' 
TABS,ioos:station:wmo:42047:1,2017-01-02T02:00:00Z,27.8966,-93.5973,4.0,4.473231494,182.1781898,5.15,'11111222,11111222,11111222' 
TABS,ioos:station:wmo:42047:1,2017-01-02T02:30:00Z,27.8966,-93.5973,4.0,5.310037665,179.7844087,6.49,'11111222,11111222,11111222' 
TABS,ioos:station:wmo:42047:1,2017-01-02T03:00:00Z,27.8966,-93.5973,4.0,6.294203683,177.9060722,7.89,'11111222,11111222,11111222' 
TABS,ioos:station:wmo:42047:1,2017-01-02T03:30:00Z,27.8966,-93.5973,4.0,7.054083924,178.0504733,8.11,'11111222,11111222,11111222' 
TABS,ioos:station:wmo:42047:1,2017-01-02T04:00:00Z,27.8966,-93.5973,4.0,6.735888954,174.9752158,8.24,'11111222,11111222,11111222' 
TABS,ioos:station:wmo:42047:1,2017-01-02T04:30:00Z,27.8966,-93.5973,4.0,7.232496111,178.4948622,9.06,'11111222,11111222,11111222' 
TABS,ioos:station:wmo:42047:1,2017-01-02T05:00:00Z,27.8966,-93.5973,4.0,7.842301958,178.6119398,9.21,'11111222,11111222,11111222' 
TABS,ioos:station:wmo:42047:1,2017-01-02T05:30:00Z,27.8966,-93.5973,4.0,8.481249908,175.9434821,10.42,'11111222,11111222,11111222' 
TABS,ioos:station:wmo:42047:1,2017-01-02T06:00:00Z,27.8966,-93.5973,4.0,8.521860126,175.8954424,10.13,'11111222,11111222,11111222' 
TABS,ioos:station:wmo:42047:1,2017-01-02T06:30:00Z,27.8966,-93.5973,4.0,8.856150405,177.864752,10.83,'11111222,11111222,11111222' 
TABS,ioos:station:wmo:42047:1,2017-01-02T07:00:00Z,27.8966,-93.5973,4.0,9.071168613,177.156737,11.4,'11111222,11111222,11111222' 
TABS,ioos:station:wmo:42047:1,2017-01-02T07:30:00Z,27.8966,-93.5973,4.0,8.784190344,174.2506894,10.46,'11111222,11111222,11111222' 
TABS,ioos:station:wmo:42047:1,2017-01-02T08:00:00Z,27.8966,-93.5973,4.0,9.098857071,174.7031747,10.85,'11111222,11111222,11111222' 
TABS,ioos:station:wmo:42047:1,2017-01-02T08:30:00Z,27.8966,-93.5973,4.0,8.360203347,175.1284428,10.17,'11111222,11111222,11111222' 
TABS,ioos:station:wmo:42047:1,2017-01-02T09:00:00Z,27.8966,-93.5973,4.0,8.443535989,170.5936888,10.22,'11111222,11111222,11111222' 
TABS,ioos:station:wmo:42047:1,2017-01-02T09:30:00Z,27.8966,-93.5973,4.0,9.492928947,167.281582,10.83,'11111222,11111222,11111222' 
TABS,ioos:station:wmo:42047:1,2017-01-02T10:00:00Z,27.8966,-93.5973,4.0,8.597237929,173.9912186,10.08,'11111222,11111222,11111222' 
TABS,ioos:station:wmo:42047:1,2017-01-02T10:30:00Z,27.8966,-93.5973,4.0,8.617667898,175.407743,10.0,'11111222,11111222,11111222' 
TABS,ioos:station:wmo:42047:1,2017-01-02T11:00:00Z,27.8966,-93.5973,4.0,8.432016366,176.9410021,9.99,'11111222,11111222,11111222' 
TABS,ioos:station:wmo:42047:1,2017-01-02T11:30:00Z,27.8966,-93.5973,4.0,7.278907885,177.1653277,8.83,'11111222,11111222,11111222' 
TABS,ioos:station:wmo:42047:1,2017-01-02T12:00:00Z,27.8966,-93.5973,4.0,7.100718274,176.8517189,8.49,'11111222,11111222,11111222' 
TABS,ioos:station:wmo:42047:1,2017-01-02T12:30:00Z,27.8966,-93.5973,4.0,7.639698947,173.4612637,9.79,'11111222,11111222,11111222' 
TABS,ioos:station:wmo:42047:1,2017-01-02T13:00:00Z,27.8966,-93.5973,4.0,8.391167976,179.0442336,9.8,'11111222,11111222,11111222' 
TABS,ioos:station:wmo:42047:1,2017-01-02T13:30:00Z,27.8966,-93.5973,4.0,8.339598312,177.2510307,9.72,'11111222,11111222,11111222' 
TABS,ioos:station:wmo:42047:1,2017-01-02T14:00:00Z,27.8966,-93.5973,4.0,8.870952598,179.1605373,10.98,'11111222,11111222,11111222' 
TABS,ioos:station:wmo:42047:1,2017-01-02T14:30:00Z,27.8966,-93.5973,4.0,9.138473614,185.9041873,10.5,'11111222,11111222,11111222' 
TABS,ioos:station:wmo:42047:1,2017-01-02T15:00:00Z,27.8966,-93.5973,4.0,9.34614894,186.8210556,10.7,'11111222,11111222,11111222' 
TABS,ioos:station:wmo:42047:1,2017-01-02T15:30:00Z,27.8966,-93.5973,4.0,9.167006054,187.900476,10.52,'11111222,11111222,11111222' 
TABS,ioos:station:wmo:42047:1,2017-01-02T16:00:00Z,27.8966,-93.5973,4.0,10.00176984,192.8831598,12.74,'11111222,11111222,11111222' 
TABS,ioos:station:wmo:42047:1,2017-01-02T16:30:00Z,27.8966,-93.5973,4.0,10.46506569,195.178464,12.08,'11111222,11111222,11111222' 
TABS,ioos:station:wmo:42047:1,2017-01-02T17:00:00Z,27.8966,-93.5973,4.0,11.10157196,193.3855045,13.42,'11111222,11111222,11111222' 
TABS,ioos:station:wmo:42047:1,2017-01-02T17:30:00Z,27.8966,-93.5973,4.0,9.777249102,201.2901114,11.54,'11111222,11111222,11111222' 
TABS,ioos:station:wmo:42047:1,2017-01-02T18:00:00Z,27.8966,-93.5973,4.0,8.633353925,211.259817,10.09,'11111222,11111222,11111222' 
TABS,ioos:station:wmo:42047:1,2017-01-02T18:30:00Z,27.8966,-93.5973,4.0,8.566452008,217.4586093,10.04,'11111222,11111222,11111222' 
TABS,ioos:station:wmo:42047:1,2017-01-02T19:00:00Z,27.8966,-93.5973,4.0,10.24262173,221.0018603,12.61,'11111222,11111222,11111222' 
TABS,ioos:station:wmo:42047:1,2017-01-02T19:30:00Z,27.8966,-93.5973,4.0,8.574392107,232.5822413,10.01,'11111222,11111222,11111222' 
TABS,ioos:station:wmo:42047:1,2017-01-02T20:00:00Z,27.8966,-93.5973,4.0,9.029756364,229.5364472,10.74,'11111222,11111222,11111222' 
TABS,ioos:station:wmo:42047:1,2017-01-02T20:30:00Z,27.8966,-93.5973,4.0,8.271378362,239.0006769,10.17,'11111222,11111222,11111222' 
TABS,ioos:station:wmo:42047:1,2017-01-02T21:00:00Z,27.8966,-93.5973,4.0,7.752941377,241.9145372,9.18,'11111222,11111222,11111222' 
TABS,ioos:station:wmo:42047:1,2017-01-02T21:30:00Z,27.8966,-93.5973,4.0,8.112243833,302.2598542,9.5,'11111222,11111222,11111222' 
TABS,ioos:station:wmo:42047:1,2017-01-02T22:00:00Z,27.8966,-93.5973,4.0,7.184010022,306.9655168,8.45,'11111222,11111222,11111222' 
TABS,ioos:station:wmo:42047:1,2017-01-02T22:30:00Z,27.8966,-93.5973,4.0,6.659444421,318.5306818,7.85,'11111222,11111222,11111222' 
TABS,ioos:station:wmo:42047:1,2017-01-02T23:00:00Z,27.8966,-93.5973,4.0,5.218553439,323.9644283,6.52,'11111222,11111222,11111222' 
TABS,ioos:station:wmo:42047:1,2017-01-02T23:30:00Z,27.8966,-93.5973,4.0,3.275805245,327.0859856,4.42,'11111222,11111222,11111222' 
TABS,ioos:station:wmo:42047:1,2017-01-03T00:00:00Z,27.8966,-93.5973,4.0,2.030591047,334.3181435,2.89,'11111222,11111222,11111222' 
TABS,ioos:station:wmo:42047:1,2017-01-03T00:30:00Z,27.8966,-93.5973,4.0,0.938136451,305.8925818,1.65,'11111222,11111222,11111222' 
TABS,ioos:station:wmo:42047:1,2017-01-03T01:00:00Z,27.8966,-93.5973,4.0,0.560802996,201.991289,1.12,'11111222,11111222,11111222' 
TABS,ioos:station:wmo:42047:1,2017-01-03T01:30:00Z,27.8966,-93.5973,4.0,1.220655562,181.8780835,1.98,'11111222,11111222,11111222' 
TABS,ioos:station:wmo:42047:1,2017-01-03T02:00:00Z,27.8966,-93.5973,4.0,1.779016582,190.3626453,2.27,'11111222,11111222,11111222' 
TABS,ioos:station:wmo:42047:1,2017-01-03T02:30:00Z,27.8966,-93.5973,4.0,1.626099628,209.8761333,2.09,'11111222,11111222,11111222' 
TABS,ioos:station:wmo:42047:1,2017-01-03T03:00:00Z,27.8966,-93.5973,4.0,1.709502852,208.6641005,2.28,'11111222,11111222,11111222' 
TABS,ioos:station:wmo:42047:1,2017-01-03T03:30:00Z,27.8966,-93.5973,4.0,1.980025252,233.4195581,2.53,'11111222,11111222,11111222' 
TABS,ioos:station:wmo:42047:1,2017-01-03T04:00:00Z,27.8966,-93.5973,4.0,2.653469427,258.4783594,3.29,'11111222,11111222,11111222' 
TABS,ioos:station:wmo:42047:1,2017-01-03T04:30:00Z,27.8966,-93.5973,4.0,2.995530003,261.166606,3.65,'11111222,11111222,11111222' 
TABS,ioos:station:wmo:42047:1,2017-01-03T05:00:00Z,27.8966,-93.5973,4.0,3.314226908,276.9320136,3.89,'11111222,11111222,11111222' 
TABS,ioos:station:wmo:42047:1,2017-01-03T05:30:00Z,27.8966,-93.5973,4.0,3.859144983,289.8435312,4.73,'11111222,11111222,11111222' 
TABS,ioos:station:wmo:42047:1,2017-01-03T06:00:00Z,27.8966,-93.5973,4.0,3.875590278,280.5560595,4.53,'11111222,11111222,11111222' 
TABS,ioos:station:wmo:42047:1,2017-01-03T06:30:00Z,27.8966,-93.5973,4.0,4.918587196,289.7243006,6.02,'11111222,11111222,11111222' 
TABS,ioos:station:wmo:42047:1,2017-01-03T07:00:00Z,27.8966,-93.5973,4.0,4.851824399,302.5435737,5.97,'11111222,11111222,11111222' 
TABS,ioos:station:wmo:42047:1,2017-01-03T07:30:00Z,27.8966,-93.5973,4.0,3.905790573,312.9248733,4.7,'11111222,11111222,11111222' 
TABS,ioos:station:wmo:42047:1,2017-01-03T08:00:00Z,27.8966,-93.5973,4.0,3.91532885,321.6371745,4.85,'11111222,11111222,11111222' 
TABS,ioos:station:wmo:42047:1,2017-01-03T08:30:00Z,27.8966,-93.5973,4.0,3.698215786,321.1465061,4.39,'11111222,11111222,11111222' 
TABS,ioos:station:wmo:42047:1,2017-01-03T09:00:00Z,27.8966,-93.5973,4.0,2.790340481,318.1958253,3.58,'11111222,11111222,11111222' 
TABS,ioos:station:wmo:42047:1,2017-01-03T09:30:00Z,27.8966,-93.5973,4.0,2.67977611,327.4958766,3.4,'11111222,11111222,11111222' 
TABS,ioos:station:wmo:42047:1,2017-01-03T10:00:00Z,27.8966,-93.5973,4.0,2.028053254,330.7806112,2.87,'11111222,11111222,11111222' 
TABS,ioos:station:wmo:42047:1,2017-01-03T10:30:00Z,27.8966,-93.5973,4.0,0.82,347.3194357,1.67,'11111222,11111222,11111222' 
TABS,ioos:station:wmo:42047:1,2017-01-03T11:00:00Z,27.8966,-93.5973,4.0,0.09,270.0,0.76,'11111222,11111222,11111222' 
TABS,ioos:station:wmo:42047:1,2017-01-03T11:30:00Z,27.8966,-93.5973,4.0,0.504777179,303.6899887,0.9,'11111222,11111222,11111222' 
TABS,ioos:station:wmo:42047:1,2017-01-03T12:00:00Z,27.8966,-93.5973,4.0,0.640312424,268.2100936,1.19,'11111222,11111222,11111222' 
TABS,ioos:station:wmo:42047:1,2017-01-03T12:30:00Z,27.8966,-93.5973,4.0,0.45880279,196.4601868,1.45,'11111222,11111222,11111222' 
TABS,ioos:station:wmo:42047:1,2017-01-03T13:00:00Z,27.8966,-93.5973,4.0,1.200374941,178.5681176,1.66,'11111222,11111222,11111222' 
TABS,ioos:station:wmo:42047:1,2017-01-03T13:30:00Z,27.8966,-93.5973,4.0,0.810246876,167.164631,1.67,'11111222,11111222,11111222' 
TABS,ioos:station:wmo:42047:1,2017-01-03T14:00:00Z,27.8966,-93.5973,4.0,0.503289181,200.9559382,1.41,'11111222,11111222,11111222' 
TABS,ioos:station:wmo:42047:1,2017-01-03T14:30:00Z,27.8966,-93.5973,4.0,1.412303084,190.1961749,2.19,'11111222,11111222,11111222' 
TABS,ioos:station:wmo:42047:1,2017-01-03T15:00:00Z,27.8966,-93.5973,4.0,0.632534584,219.2257928,1.07,'11111222,11111222,11111222' 
TABS,ioos:station:wmo:42047:1,2017-01-03T15:30:00Z,27.8966,-93.5973,4.0,1.438923209,160.9357076,2.33,'11111222,11111222,11111222' 
TABS,ioos:station:wmo:42047:1,2017-01-03T16:00:00Z,27.8966,-93.5973,4.0,2.424066831,216.444567,3.4,'11111222,11111222,11111222' 
TABS,ioos:station:wmo:42047:1,2017-01-03T16:30:00Z,27.8966,-93.5973,4.0,2.801892218,222.9753449,3.32,'11111222,11111222,11111222' 
TABS,ioos:station:wmo:42047:1,2017-01-03T17:00:00Z,27.8966,-93.5973,4.0,3.112715856,230.7365872,3.94,'11111222,11111222,11111222' 
TABS,ioos:station:wmo:42047:1,2017-01-03T17:30:00Z,27.8966,-93.5973,4.0,3.260567435,250.8426851,4.19,'11111222,11111222,11111222' 
TABS,ioos:station:wmo:42047:1,2017-01-03T18:00:00Z,27.8966,-93.5973,4.0,3.68148068,259.5142153,4.59,'11111222,11111222,11111222' 
TABS,ioos:station:wmo:42047:1,2017-01-03T18:30:00Z,27.8966,-93.5973,4.0,3.672710171,260.2812305,4.55,'11111222,11111222,11111222' 
TABS,ioos:station:wmo:42047:1,2017-01-03T19:00:00Z,27.8966,-93.5973,4.0,4.142233697,261.8112322,4.81,'11111222,11111222,11111222' 
TABS,ioos:station:wmo:42047:1,2017-01-03T19:30:00Z,27.8966,-93.5973,4.0,4.06162529,261.7901178,4.93,'11111222,11111222,11111222' 
TABS,ioos:station:wmo:42047:1,2017-01-03T20:00:00Z,27.8966,-93.5973,4.0,4.338409847,273.568088,5.33,'11111222,11111222,11111222' 
TABS,ioos:station:wmo:42047:1,2017-01-03T20:30:00Z,27.8966,-93.5973,4.0,4.424985876,272.7201458,5.5,'11111222,11111222,11111222' 
TABS,ioos:station:wmo:42047:1,2017-01-03T21:00:00Z,27.8966,-93.5973,4.0,5.126099882,272.7954188,6.03,'11111222,11111222,11111222' 
TABS,ioos:station:wmo:42047:1,2017-01-03T21:30:00Z,27.8966,-93.5973,4.0,5.134296446,279.0770326,6.03,'11111222,11111222,11111222' 
TABS,ioos:station:wmo:42047:1,2017-01-03T22:00:00Z,27.8966,-93.5973,4.0,5.45838804,289.0324053,6.49,'11111222,11111222,11111222' 
TABS,ioos:station:wmo:42047:1,2017-01-03T22:30:00Z,27.8966,-93.5973,4.0,5.295252591,286.0048093,6.22,'11111222,11111222,11111222' 
TABS,ioos:station:wmo:42047:1,2017-01-03T23:00:00Z,27.8966,-93.5973,4.0,5.714551601,287.8324834,6.8,'11111222,11111222,11111222' 
TABS,ioos:station:wmo:42047:1,2017-01-03T23:30:00Z,27.8966,-93.5973,4.0,5.758063911,293.7603684,6.73,'11111222,11111222,11111222' 
TABS,ioos:station:wmo:42047:1,2017-01-04T00:00:00Z,27.8966,-93.5973,4.0,5.821692194,292.2034266,6.81,'11111222,11111222,11111222' 
TABS,ioos:station:wmo:42047:1,2017-01-04T00:30:00Z,27.8966,-93.5973,4.0,5.864639801,292.4544788,6.87,'11111222,11111222,11111222' 
TABS,ioos:station:wmo:42047:1,2017-01-04T01:00:00Z,27.8966,-93.5973,4.0,6.027569991,288.9759818,6.9,'11111222,11111222,11111222' 
TABS,ioos:station:wmo:42047:1,2017-01-04T01:30:00Z,27.8966,-93.5973,4.0,6.621072421,290.7889462,7.55,'11111222,11111222,11111222' 
TABS,ioos:station:wmo:42047:1,2017-01-04T02:00:00Z,27.8966,-93.5973,4.0,4.788037176,284.7618006,5.9,'11111222,11111222,11111222' 
TABS,ioos:station:wmo:42047:1,2017-01-04T02:30:00Z,27.8966,-93.5973,4.0,4.821877228,279.1888146,5.91,'11111222,11111222,11111222' 
TABS,ioos:station:wmo:42047:1,2017-01-04T03:00:00Z,27.8966,-93.5973,4.0,5.240238544,287.7779537,6.01,'11111222,11111222,11111222' 
TABS,ioos:station:wmo:42047:1,2017-01-04T03:30:00Z,27.8966,-93.5973,4.0,5.263705919,296.5163097,6.2,'11111222,11111222,11111222' 
TABS,ioos:station:wmo:42047:1,2017-01-04T04:00:00Z,27.8966,-93.5973,4.0,6.416268386,301.6834793,7.61,'11111222,11111222,11111222' 
TABS,ioos:station:wmo:42047:1,2017-01-04T04:30:00Z,27.8966,-93.5973,4.0,7.857206883,308.9558167,9.18,'11111222,11111222,11111222' 
TABS,ioos:station:wmo:42047:1,2017-01-04T05:00:00Z,27.8966,-93.5973,4.0,8.020355354,309.4853428,9.39,'11111222,11111222,11111222' 
TABS,ioos:station:wmo:42047:1,2017-01-04T05:30:00Z,27.8966,-93.5973,4.0,7.728680353,315.0523153,9.31,'11111222,11111222,11111222' 
TABS,ioos:station:wmo:42047:1,2017-01-04T06:00:00Z,27.8966,-93.5973,4.0,8.110302091,323.6245028,9.33,'11111222,11111222,11111222' 
TABS,ioos:station:wmo:42047:1,2017-01-04T06:30:00Z,27.8966,-93.5973,4.0,8.372729543,331.3839354,9.43,'11111222,11111222,11111222' 
TABS,ioos:station:wmo:42047:1,2017-01-04T07:00:00Z,27.8966,-93.5973,4.0,9.238744503,336.9315445,11.5,'11111222,11111222,11111222' 
TABS,ioos:station:wmo:42047:1,2017-01-04T07:30:00Z,27.8966,-93.5973,4.0,9.296391773,345.9934749,10.96,'11111222,11111222,11111222' 
TABS,ioos:station:wmo:42047:1,2017-01-04T08:00:00Z,27.8966,-93.5973,4.0,8.803732163,348.9323898,10.74,'11111222,11111222,11111222' 
TABS,ioos:station:wmo:42047:1,2017-01-04T08:30:00Z,27.8966,-93.5973,4.0,9.143850392,347.8788024,11.04,'11111222,11111222,11111222' 
TABS,ioos:station:wmo:42047:1,2017-01-04T09:00:00Z,27.8966,-93.5973,4.0,9.791312476,349.5850551,11.7,'11111222,11111222,11111222' 
TABS,ioos:station:wmo:42047:1,2017-01-04T09:30:00Z,27.8966,-93.5973,4.0,9.318889419,352.5392409,10.98,'11111222,11111222,11111222' 
TABS,ioos:station:wmo:42047:1,2017-01-04T10:00:00Z,27.8966,-93.5973,4.0,9.25,359.9997895,11.21,'11111222,11144222,11111222' 
TABS,ioos:station:wmo:42047:1,2017-01-04T10:30:00Z,27.8966,-93.5973,4.0,9.514830529,351.9037702,11.43,'11111222,11111222,11111222' 
TABS,ioos:station:wmo:42047:1,2017-01-04T11:00:00Z,27.8966,-93.5973,4.0,8.888560063,2.514536308,11.22,'11111222,11111222,11111222' 
TABS,ioos:station:wmo:42047:1,2017-01-04T11:30:00Z,27.8966,-93.5973,4.0,8.580075757,8.309304845,10.86,'11111222,11111222,11111222' 
TABS,ioos:station:wmo:42047:1,2017-01-04T12:00:00Z,27.8966,-93.5973,4.0,8.379606196,14.01941679,10.64,'11111222,11111222,11111222' 
TABS,ioos:station:wmo:42047:1,2017-01-04T12:30:00Z,27.8966,-93.5973,4.0,8.490800905,15.29630109,10.29,'11111222,11111222,11111222' 
TABS,ioos:station:wmo:42047:1,2017-01-04T13:00:00Z,27.8966,-93.5973,4.0,8.668483143,11.64672489,10.31,'11111222,11111222,11111222' 
TABS,ioos:station:wmo:42047:1,2017-01-04T13:30:00Z,27.8966,-93.5973,4.0,8.358115816,14.55141432,10.0,'11111222,11111222,11111222' 
TABS,ioos:station:wmo:42047:1,2017-01-04T14:00:00Z,27.8966,-93.5973,4.0,7.950610039,11.53582422,10.01,'11111222,11111222,11111222' 
TABS,ioos:station:wmo:42047:1,2017-01-04T14:30:00Z,27.8966,-93.5973,4.0,7.704135253,28.19470267,10.3,'11111222,11111222,11111222' 
TABS,ioos:station:wmo:42047:1,2017-01-04T15:00:00Z,27.8966,-93.5973,4.0,7.560661347,23.37743631,9.67,'11111222,11111222,11111222' 
TABS,ioos:station:wmo:42047:1,2017-01-04T15:30:00Z,27.8966,-93.5973,4.0,7.030711202,27.2572495,8.59,'11111222,11111222,11111222' 
TABS,ioos:station:wmo:42047:1,2017-01-04T16:00:00Z,27.8966,-93.5973,4.0,7.256583218,36.14317912,8.94,'11111222,11111222,11111222' 
TABS,ioos:station:wmo:42047:1,2017-01-04T16:30:00Z,27.8966,-93.5973,4.0,7.028698315,44.76911958,8.92,'11111222,11111222,11111222' 
TABS,ioos:station:wmo:42047:1,2017-01-04T17:00:00Z,27.8966,-93.5973,4.0,6.983308671,48.25030589,9.55,'11111222,11111222,11111222' 
TABS,ioos:station:wmo:42047:1,2017-01-04T17:30:00Z,27.8966,-93.5973,4.0,6.771772294,55.04229813,8.23,'11111222,11111222,11111222' 
TABS,ioos:station:wmo:42047:1,2017-01-04T18:00:00Z,27.8966,-93.5973,4.0,5.672547928,57.23408531,7.51,'11111222,11111222,11111222' 
TABS,ioos:station:wmo:42047:1,2017-01-04T18:30:00Z,27.8966,-93.5973,4.0,5.494333445,45.36837707,7.61,'11111222,11111222,11111222' 